"Pseudo-MPEC" for TR6352

Created 2026 Sep 5 9:35:15 UT using Find_Orb

Click here for an explanation of pseudo-MPECs

 
 Astrometry: 
     TR6352 *KC2026 09 03.96674321 27 39.082-53 05 45.38   ~9435 19.2 GXNEOCPX29
     TR6352  KC2026 09 03.97291921 27 39.470-53 06 36.50   ~9435 19.3 GXNEOCPX29
     TR6352  KC2026 09 03.97909421 27 40.061-53 07 25.93   ~9435 18.9 GXNEOCPX29

Station data:
(X29) Observatorio Astronomico Municipal de Funes  (S32.916804 W60.862390)
   Argentina.

Orbital elements:  TR6352
   Perihelion 2026 Jul 17.227794 +/- 58.2 TT =  5:28:01.3 (JD 2461238.727794)
Epoch 2026 Sep  4.0 TT = JDT 2461287.5   Earth MOID: 0.0286   Ma: 0.0416
M   7.476712570 +/- 49              (J2000 ecliptic)             AutoNEOCP
n   0.153298633 +/- 0.277           Peri.  106.664371 +/- 80
a   3.457619451 +/- 4.16            Node   155.983152 +/- 45
e   0.79313505 +/- 0.277            Incl.   63.497515 +/- 19
P   6.42933                H 21.99  G  0.15   U 11.9  SR
q 0.715260246 +/- 0.239    Q 6.199978656 +/- 27.1
From 3 observations 2026 Sept. 3 (17.8 min); mean residual 0".41
Residuals in arcseconds: 
260903 X29  .32+  .25+    260903 X29  .63-  .51-    260903 X29  .32+  .25+    

Ephemerides (geocentric):
Date (UTC) HH   RA             Dec           delta  r     elong  mag " sig PA
---- --------  ------------   ------------  ------ ------ -----  --- --------
2026 09 05 10  21 29 48.675   -55 38 18.20  .15996 1.1146 128.3 20.0 3906  16
2026 09 05 11  21 29 52.076   -55 41 45.76  .16087 1.1151 128.3 20.0 4270  20
2026 09 05 12  21 29 55.455   -55 45 10.83  .16179 1.1156 128.2 20.0 4719  23
2026 09 05 13  21 29 58.812   -55 48 33.47  .16271 1.1161 128.1 20.0 5287  27
2026 09 05 14  21 30 02.149   -55 51 53.72  .16362 1.1166 128.1 20.0 6025  31
2026 09 05 15  21 30 05.464   -55 55 11.61  .16454 1.1170 128.0 20.0 7026  36
2026 09 05 16  21 30 08.759   -55 58 27.18  .16546 1.1175 127.9 20.1 8462  42
2026 09 05 17  21 30 12.034   -56 01 40.47  .16638 1.1180 127.9 20.1 178'  50
2026 09 05 18  21 30 15.288   -56 04 51.51  .16730 1.1185 127.8 20.1 241'  60
2026 09 05 19  21 30 18.523   -56 08 00.35  .16822 1.1190 127.7 20.1 332'  71
2026 09 05 20  21 30 21.738   -56 11 07.02  .16913 1.1195 127.7 20.1 412'  81
2026 09 05 21  21 30 24.934   -56 14 11.54  .17005 1.1200 127.6 20.1 464'  93
2026 09 05 22  21 30 28.111   -56 17 13.96  .17097 1.1205 127.5 20.1 514' 106
2026 09 05 23  21 30 31.269   -56 20 14.31  .17189 1.1210 127.5 20.1 572' 116
2026 09 06 00  21 30 34.409   -56 23 12.62  .17281 1.1215 127.4 20.2 629' 123
2026 09 06 01  21 30 37.531   -56 26 08.92  .17373 1.1220 127.3 20.2 674' 128
2026 09 06 02  21 30 40.635   -56 29 03.24  .17465 1.1225 127.3 20.2 708' 130
2026 09 06 03  21 30 43.721   -56 31 55.61  .17557 1.1230 127.2 20.2 733' 132
2026 09 06 04  21 30 46.790   -56 34 46.07  .17649 1.1235 127.1 20.2 752' 133
2026 09 06 05  21 30 49.841   -56 37 34.64  .17741 1.1240 127.1 20.2 768' 134
2026 09 06 06  21 30 52.876   -56 40 21.34  .17833 1.1244 127.0 20.2 780' 134
2026 09 06 07  21 30 55.894   -56 43 06.22  .17925 1.1249 126.9 20.3 790' 135
2026 09 06 08  21 30 58.895   -56 45 49.29  .18017 1.1254 126.9 20.3 800' 135
2026 09 06 09  21 31 01.880   -56 48 30.58  .18109 1.1259 126.8 20.3 809' 135
2026 09 06 10  21 31 04.849   -56 51 10.12  .18201 1.1264 126.8 20.3 819' 134
2026 09 06 11  21 31 07.802   -56 53 47.94  .18293 1.1269 126.7 20.3 831' 134
2026 09 06 12  21 31 10.739   -56 56 24.05  .18385 1.1274 126.6 20.3 846' 133
2026 09 06 13  21 31 13.661   -56 58 58.49  .18477 1.1279 126.6 20.3 865' 132
2026 09 06 14  21 31 16.568   -57 01 31.27  .18569 1.1284 126.5 20.3 888' 132
2026 09 06 15  21 31 19.460   -57 04 02.43  .18661 1.1289 126.5 20.4 916' 132
2026 09 06 16  21 31 22.336   -57 06 31.98  .18754 1.1294 126.4 20.4 948' 133
2026 09 06 17  21 31 25.199   -57 08 59.96  .18846 1.1299 126.3 20.4 980' 133
2026 09 06 18  21 31 28.047   -57 11 26.37  .18938 1.1304 126.3 20.4  17d 134
2026 09 06 19  21 31 30.880   -57 13 51.24  .19030 1.1309 126.2 20.4  17d 135
2026 09 06 20  21 31 33.700   -57 16 14.60  .19122 1.1314 126.2 20.4  18d 135
2026 09 06 21  21 31 36.505   -57 18 36.46  .19214 1.1319 126.1 20.4  18d 135
2026 09 06 22  21 31 39.297   -57 20 56.85  .19307 1.1324 126.1 20.4  18d 135
2026 09 06 23  21 31 42.076   -57 23 15.79  .19399 1.1329 126.0 20.4  19d 135
2026 09 07 00  21 31 44.841   -57 25 33.29  .19491 1.1333 126.0 20.5  19d 134
2026 09 07 01  21 31 47.593   -57 27 49.38  .19583 1.1338 125.9 20.5  19d 134
2026 09 07 02  21 31 50.332   -57 30 04.08  .19676 1.1343 125.8 20.5  20d 134
2026 09 07 03  21 31 53.059   -57 32 17.40  .19768 1.1348 125.8 20.5  20d 134
2026 09 07 04  21 31 55.772   -57 34 29.36  .19860 1.1353 125.7 20.5  20d 134
2026 09 07 05  21 31 58.474   -57 36 39.99  .19952 1.1358 125.7 20.5  20d 134
2026 09 07 06  21 32 01.163   -57 38 49.29  .20045 1.1363 125.6 20.5  21d 134
2026 09 07 07  21 32 03.839   -57 40 57.29  .20137 1.1368 125.6 20.5  21d 134
2026 09 07 08  21 32 06.504   -57 43 04.01  .20229 1.1373 125.5 20.5  21d 134
2026 09 07 09  21 32 09.157   -57 45 09.46  .20322 1.1378 125.5 20.6  21d 135